Temperature
17 17 17 16 16 16 16 16 16 16 16 16 16 16 16 16 15 15 15 15 15 15 15 15 15 15 15 15 15 15 15 15 15 15 15 15 15 15 15 15 15 15 15
17 17 17 17 16 16 16 16 16 16 16 16 16 16 15 15 15 15 15 15 15 15 15 15 15 15 15 15 15 15 15 15 15 15 15 14 15 15 15 15 15 15 15
17 17 17 17 16 16 16 16 16 16 16 16 15 15 15 15 15 15 15 15 15 15 15 15 15 15 15 14 15 15 15 15 15 14 14 14 14 14 14 14 14 14 15
17 17 17 16 16 16 16 16 16 16 16 15 15 15 15 15 15 15 15 15 15 15 15 15 14 15 14 14 14 14 14 14 14 14 14 14 14 14 14 14 14 14 14
17 17 16 16 16 16 16 16 16 16 16 15 15 15 15 15 15 15 15 14 14 14 14 14 14 14 14 14 14 14 14 14 14 14 14 14 14 14 14 14 14 13 14
16 16 16 16 16 16 16 16 16 15 15 15 15 15 15 15 15 15 15 14 14 14 14 14 14 14 14 14 14 14 14 14 14 14 14 14 14 13 13 13 13 13 13
16 16 16 16 16 16 16 16 15 15 15 15 15 15 15 15 15 15 15 14 14 14 14 14 14 14 14 14 14 14 14 14 14 13 13 13 13 13 13 13 13 13 13
16 16 16 16 16 15 15 15 15 15 15 15 15 15 14 14 14 15 14 14 14 14 14 14 13 14 14 14 14 14 13 13 13 13 13 13 13 13 13 13 13 13 13
16 16 16 16 15 15 15 15 15 15 15 15 15 15 15 14 14 14 14 14 14 14 13 13 13 13 13 13 13 13 13 13 13 13 13 12 12 12 12 12 12 12 12
16 16 16 16 15 15 15 15 15 15 15 15 15 15 15 15 14 14 14 14 14 14 13 13 13 13 13 13 13 13 13 13 13 12 12 12 12 12 12 12 12 12 12
16 16 16 15 15 15 15 15 15 15 15 15 15 15 15 15 15 14 13 13 13 13 13 13 13 13 13 13 13 13 13 13 13 12 12 12 12 12 12 12 11 11 11
16 16 16 16 15 15 15 15 15 15 15 15 15 15 15 15 15 15 14 13 13 13 13 13 13 13 13 13 12 12 12 12 12 12 12 12 12 12 11 11 11 11 11
16 16 16 15 15 15 15 15 15 15 15 15 15 15 15 15 15 15 14 14 13 13 13 13 12 12 12 12 12 12 12 12 12 12 12 12 12 11 11 11 11 11 10
16 16 16 15 15 15 15 15 15 15 15 15 15 15 15 15 15 14 14 14 13 13 12 12 12 12 12 12 12 12 12 12 11 12 12 12 11 11 11 11 11 11 10
15 15 15 15 15 15 15 15 15 15 15 15 15 14 14 14 14 14 14 14 14 13 12 12 12 12 12 12 12 12 11 11 11 11 11 11 11 11 11 11 11 11 10
16 15 15 15 15 15 15 15 15 15 15 14 14 14 14 14 14 14 14 13 13 13 12 12 12 12 11 11 11 11 11 11 11 11 11 11 11 11 11 11 11 10 10
15 15 15 15 15 15 15 15 15 14 14 14 14 14 14 14 14 14 13 13 13 13 13 12 11 11 11 11 11 11 11 11 11 11 11 11 11 11 10 10 10 10 10
15 15 15 15 15 15 15 15 14 14 14 14 14 14 14 14 14 13 13 13 13 13 13 12 11 11 11 11 11 11 10 10 10 10 10 10 10 10 10 10 10 10 10
15 15 15 15 15 15 15 15 14 14 14 14 14 14 13 13 13 13 13 13 13 12 12 12 12 11 11 11 10 10 10 10 10 10 10 10 10 10 10 10 9 9 9
15 15 15 15 15 14 14 14 14 14 14 14 14 14 13 13 13 13 13 13 12 12 12 12 11 11 11 10 10 10 10 10 10 10 10 10 10 9 9 9 9 9 9
15 15 15 15 14 14 14 14 14 14 14 13 13 13 13 13 13 13 13 12 12 12 12 11 11 11 11 10 10 10 10 10 10 10 10 9 9 9 9 9 9 8 8
15 15 14 14 14 14 14 14 13 13 13 13 13 13 13 13 13 13 12 12 12 12 12 11 11 11 11 10 10 10 10 10 9 9 9 9 9 9 8 8 8 8 8
14 14 14 14 14 14 14 13 13 13 13 13 13 13 13 12 12 12 12 12 12 12 11 11 11 11 10 10 10 10 10 10 9 9 9 9 8 8 8 8 8 8 8
14 14 14 14 14 14 14 13 13 13 13 13 13 12 12 12 12 12 12 12 12 11 11 11 11 11 10 10 10 10 10 9 9 9 9 8 8 8 8 8 8 7 7
14 14 14 14 14 14 13 13 13 13 13 13 12 12 12 12 12 12 12 11 11 11 11 10 10 10 10 10 10 10 10 9 9 9 8 8 8 8 8 8 7 7 7
13 13 13 13 13 13 13 13 13 13 13 13 12 12 12 12 12 11 11 11 11 11 10 10 10 10 10 10 10 10 9 9 9 8 8 8 8 7 7 7 7 7 7
Wind_Speed
2 2 2 3 3 3 3 3 4 4 5 6 8 8 7 8 10 10 10 13 13 13 12 12 11 11 11 11 11 11 11 11 10 10 10 10 10 10 10 9 10 10 10
2 2 2 2 3 4 4 4 5 4 4 5 6 7 6 7 9 10 9 10 12 12 13 12 12 11 11 11 11 11 11 11 11 10 10 10 10 10 11 10 10 11 11
3 3 2 2 3 5 5 5 6 4 4 4 4 5 5 6 7 7 8 8 10 11 12 12 12 12 12 11 11 11 11 10 10 10 10 10 10 10 11 11 12 12 12
4 4 2 2 4 5 4 3 3 3 3 3 3 3 4 4 5 5 7 8 8 9 11 12 12 12 12 12 11 11 10 10 10 10 11 11 11 12 12 12 12 12 13
4 5 2 2 4 3 3 3 4 3 3 3 2 2 2 3 3 5 6 8 8 10 10 11 11 11 11 11 11 11 11 10 10 10 11 11 12 12 12 12 13 13 12
3 5 2 2 4 3 3 3 3 3 2 2 3 3 2 2 3 4 4 6 7 8 9 9 9 10 11 11 11 11 11 10 11 11 11 11 11 12 12 12 12 13 12
4 5 2 2 3 3 2 3 3 3 2 2 2 2 2 3 3 3 3 4 5 7 8 8 8 8 9 10 11 11 11 11 11 11 11 11 12 12 12 12 12 12 12
3 3 3 3 3 2 2 2 2 2 1 1 2 2 1 2 3 3 2 3 4 6 6 8 9 9 9 9 10 11 11 11 11 11 11 11 11 12 12 12 12 12 12
2 2 3 3 3 3 2 1 2 2 1 1 1 2 2 1 1 2 3 3 3 3 4 6 9 10 10 10 10 11 11 11 11 11 11 11 11 11 11 11 12 12 12
2 2 3 3 3 3 3 2 2 1 1 1 0 0 1 3 2 0 2 2 3 3 3 5 7 9 10 10 10 11 11 11 10 10 10 10 11 11 11 11 11 11 11
2 2 2 3 3 3 3 1 1 1 1 1 1 0 1 0 1 2 1 0 1 2 2 4 6 7 10 10 10 10 11 11 10 10 10 10 10 11 11 11 11 11 11
2 2 2 2 3 3 3 2 2 1 0 0 0 1 1 1 1 1 2 2 1 1 2 3 4 6 8 9 9 10 10 10 10 10 10 10 10 10 11 11 11 11 11
2 2 2 2 2 2 3 3 2 2 1 0 0 0 0 0 0 1 2 2 1 1 1 2 3 5 7 9 8 8 8 9 9 9 9 9 10 10 10 10 11 11 11
2 2 3 3 2 2 2 2 1 1 1 1 1 1 1 1 1 2 2 2 1 0 1 1 2 5 7 9 8 7 8 8 8 8 9 9 9 10 10 10 10 10 10
3 3 3 3 3 2 2 2 2 1 1 1 1 2 1 1 2 2 2 2 3 1 0 1 1 2 7 8 8 9 9 8 8 8 8 8 8 9 9 9 10 10 10
3 3 3 3 3 3 3 3 2 1 2 2 2 2 2 1 2 2 2 1 2 2 1 1 1 2 4 6 7 8 10 8 7 7 7 7 7 7 8 8 9 9 9
4 3 4 4 3 3 4 3 3 2 3 2 2 3 2 2 2 1 1 1 2 3 3 1 2 2 3 4 4 6 8 8 8 7 7 7 7 7 7 7 8 8 8
4 4 3 3 3 3 4 4 3 2 2 2 2 3 2 2 2 1 2 2 2 3 4 3 1 2 2 3 3 3 4 6 8 8 7 7 6 6 6 6 7 7 7
4 3 3 3 3 3 3 3 3 3 2 2 2 2 2 3 2 2 2 2 2 3 3 3 2 1 1 1 2 1 3 4 5 8 7 6 6 5 5 5 5 5 5
3 3 3 3 3 3 3 3 3 3 3 2 2 2 2 2 2 2 2 2 3 3 3 3 3 2 1 1 2 1 1 1 1 3 4 5 6 5 4 4 4 4 4
2 3 4 3 3 2 2 2 2 3 3 3 2 3 3 4 5 4 3 3 3 2 2 3 3 2 1 1 1 1 1 1 0 1 1 3 5 4 4 4 3 2 2
2 3 3 4 4 3 3 3 2 2 3 3 3 3 4 4 6 7 8 7 5 3 3 3 2 2 1 1 1 1 1 1 1 1 1 0 3 3 4 5 5 4 2
3 3 3 4 4 4 4 3 3 2 2 2 2 3 3 4 5 4 5 6 6 6 4 4 3 2 2 1 2 1 1 2 1 1 2 1 1 1 2 5 6 5 4
3 3 3 3 4 4 4 4 3 2 1 1 2 3 3 3 3 4 4 4 3 3 3 3 2 2 2 2 2 2 2 2 1 1 3 0 1 1 1 4 5 5 4
3 3 3 4 5 4 4 4 3 2 2 2 2 2 3 3 4 5 4 4 4 2 4 6 6 5 5 5 4 2 2 2 0 1 1 1 1 1 1 2 4 4 4
3 3 3 3 4 4 4 4 4 2 2 2 2 2 2 3 4 5 4 4 3 2 3 3 3 4 4 5 4 3 2 1 1 1 1 1 1 0 1 1 2 3 3
Wind_Direction
123 118 122 116 124 121 102 77 77 63 52 53 64 69 71 80 89 88 77 74 70 70 73 72 69 66 65 67 67 66 64 61 63 65 64 61 60 57 57 56 54 55 54
131 119 106 110 99 90 86 86 83 75 61 58 57 59 58 69 86 99 94 81 75 73 72 70 71 69 68 67 67 67 65 63 62 63 64 63 62 60 56 56 56 56 56
114 108 109 111 108 100 85 78 78 80 82 71 65 63 59 59 68 85 103 103 90 79 75 72 71 69 67 65 66 66 65 64 64 63 61 63 62 60 58 59 60 58 56
86 84 71 86 88 92 93 83 78 71 70 63 53 53 58 58 62 70 85 95 100 94 84 79 74 69 66 65 65 64 63 64 64 65 63 65 63 63 63 61 62 59 57
96 91 72 79 90 92 89 91 77 78 81 83 78 63 52 51 51 61 74 81 92 103 101 89 80 73 66 63 64 63 63 62 65 66 68 65 64 63 64 62 62 60 58
104 99 97 81 82 77 75 90 94 81 79 83 81 74 53 56 57 47 59 72 81 91 97 101 94 78 68 62 61 62 63 62 63 63 68 66 65 64 65 64 63 60 58
98 104 98 84 76 83 100 110 106 98 79 92 85 65 43 49 76 65 52 59 67 78 90 93 93 92 77 64 58 61 61 64 65 62 66 68 68 66 64 64 63 61 59
122 123 119 112 102 93 88 96 103 107 136 143 124 105 58 20 32 59 56 57 57 60 68 78 83 83 84 77 64 63 62 63 64 61 63 68 68 65 64 64 63 62 62
104 110 125 127 141 136 133 151 156 148 193 235 129 128 135 150 48 18 48 58 53 44 55 64 74 77 80 77 69 65 65 64 63 60 60 65 68 68 67 66 64 62 61
111 100 125 141 144 135 144 199 166 165 157 231 273 265 128 137 144 85 9 50 65 60 54 62 68 75 84 83 76 73 71 66 63 61 60 63 65 68 68 65 64 63 61
135 149 157 145 144 143 155 166 123 164 179 181 179 167 72 132 162 160 177 182 46 57 76 77 77 79 85 87 84 80 77 72 66 63 62 61 63 65 67 63 62 63 60
160 168 149 137 148 159 164 160 159 155 194 58 82 119 139 147 196 146 166 165 126 77 80 79 87 93 95 90 87 83 81 79 74 68 65 62 62 62 64 61 59 59 56
167 187 166 161 157 159 161 156 162 162 172 139 61 51 99 278 181 117 127 146 129 142 84 70 93 102 106 106 102 92 87 86 80 74 71 66 64 62 62 60 58 58 55
174 177 171 160 144 144 138 129 144 163 163 160 154 105 67 31 60 94 126 132 132 97 78 94 71 93 106 112 115 108 99 95 90 84 81 75 69 64 61 60 59 58 57
172 164 166 158 153 144 136 139 142 134 102 93 93 88 73 48 56 75 102 134 145 140 90 107 79 97 111 116 119 115 109 102 98 92 87 82 75 72 66 64 62 60 57
167 163 158 155 158 160 152 140 122 120 116 106 93 86 70 57 64 67 66 44 95 132 126 140 144 137 114 114 118 118 117 110 106 102 95 89 85 80 75 72 69 66 62
168 177 169 160 162 163 143 136 148 158 151 148 134 115 98 86 87 87 80 55 60 100 118 110 103 112 102 107 120 127 136 127 120 118 110 103 95 88 86 79 73 67 63
181 179 158 154 163 153 147 148 155 140 135 136 134 132 133 111 102 92 98 91 91 105 125 125 113 101 108 130 143 146 136 136 137 138 131 123 115 106 99 88 79 72 64
184 174 162 161 150 140 145 146 151 144 133 123 121 132 130 120 129 121 112 102 108 110 116 131 132 109 101 111 107 110 118 126 138 144 143 144 138 129 120 106 93 81 69
178 170 153 143 141 150 149 150 150 143 131 120 96 95 92 93 108 127 126 116 114 111 117 126 131 125 112 110 99 95 84 109 121 132 139 150 153 151 144 127 109 94 75
146 131 134 133 123 114 109 118 142 145 132 124 117 112 102 98 86 86 95 90 105 118 126 129 131 114 112 117 158 169 133 165 94 109 125 161 150 149 150 151 142 127 98
146 131 132 127 120 115 106 103 91 126 135 144 157 149 134 117 101 93 92 86 91 111 124 120 117 136 160 165 170 141 128 100 309 330 88 227 145 153 159 164 170 171 167
132 129 132 133 132 129 116 111 101 100 117 146 152 142 128 126 125 118 104 94 80 77 95 127 131 158 165 190 155 129 141 142 179 211 84 313 99 150 178 179 179 181 185
148 154 153 152 139 132 120 110 105 122 130 137 139 137 129 129 126 126 132 117 97 78 99 108 133 153 140 152 153 160 173 151 111 85 98 194 285 254 218 164 177 184 193
155 163 160 156 145 141 136 131 125 148 142 132 110 104 125 131 123 127 131 132 130 123 98 99 103 106 112 117 118 92 74 95 123 284 56 132 269 284 249 178 184 195 200
163 160 163 161 152 149 153 152 151 157 156 148 123 100 101 117 119 128 147 148 152 166 135 107 86 90 96 107 104 106 125 117 134 244 286 130 249 51 310 257 198 203 222
Height
1548 1548 1549 1550 1550 1551 1551 1552 1552 1552 1552 1553 1553 1553 1552 1552 1551 1551 1551 1550 1549 1548 1548 1547 1546 1546 1546 1546 1545 1545 1545 1545 1544 1544 1544 1544 1544 1544 1544 1544 1544 1543 1543
1549 1549 1550 1551 1551 1552 1552 1552 1553 1553 1553 1553 1554 1554 1554 1554 1553 1552 1552 1552 1551 1550 1549 1548 1548 1548 1547 1547 1546 1546 1546 1545 1545 1545 1545 1545 1545 1545 1544 1544 1544 1544 1544
1549 1550 1551 1551 1552 1552 1553 1553 1553 1554 1554 1554 1554 1555 1555 1555 1555 1554 1553 1553 1552 1551 1551 1550 1549 1549 1548 1548 1547 1547 1546 1546 1546 1546 1546 1546 1546 1545 1545 1545 1545 1544 1544
1549 1550 1551 1552 1552 1553 1553 1553 1554 1554 1554 1555 1555 1555 1556 1556 1556 1556 1555 1554 1553 1553 1552 1552 1551 1550 1550 1549 1549 1548 1547 1547 1547 1546 1546 1547 1547 1546 1546 1545 1545 1545 1544
1549 1550 1551 1552 1552 1553 1553 1554 1554 1555 1555 1555 1556 1556 1557 1557 1557 1557 1556 1556 1555 1554 1553 1553 1552 1552 1551 1550 1550 1549 1549 1548 1548 1547 1547 1547 1547 1547 1547 1546 1546 1545 1545
1549 1549 1551 1551 1552 1553 1553 1554 1555 1556 1556 1557 1557 1557 1557 1557 1558 1557 1557 1557 1556 1555 1555 1554 1553 1553 1552 1551 1551 1550 1550 1549 1549 1548 1548 1548 1548 1548 1547 1547 1547 1546 1545
1548 1549 1550 1551 1552 1552 1553 1554 1555 1556 1557 1557 1557 1557 1558 1558 1558 1558 1558 1558 1557 1557 1556 1555 1554 1553 1553 1552 1552 1551 1550 1550 1549 1549 1549 1549 1548 1548 1548 1548 1547 1547 1546
1548 1549 1550 1551 1551 1552 1553 1554 1555 1556 1557 1557 1558 1558 1558 1560 1559 1559 1559 1559 1558 1558 1557 1557 1556 1554 1554 1553 1552 1552 1551 1551 1550 1550 1549 1549 1549 1549 1549 1548 1548 1547 1547
1547 1548 1549 1550 1551 1552 1553 1554 1555 1556 1556 1557 1558 1558 1558 1558 1559 1560 1559 1559 1559 1558 1558 1557 1556 1555 1554 1554 1553 1552 1552 1551 1551 1550 1550 1550 1550 1549 1549 1549 1548 1548 1547
1546 1548 1549 1550 1551 1551 1552 1553 1554 1555 1556 1556 1557 1558 1558 1558 1558 1559 1560 1559 1559 1558 1558 1557 1557 1556 1555 1554 1554 1553 1553 1552 1552 1551 1551 1550 1550 1550 1549 1549 1549 1548 1548
1546 1547 1548 1549 1550 1551 1552 1552 1553 1554 1555 1556 1556 1556 1557 1557 1557 1557 1558 1558 1558 1558 1558 1557 1557 1556 1555 1555 1554 1554 1553 1553 1552 1552 1551 1551 1550 1550 1550 1549 1549 1548 1548
1545 1546 1547 1548 1549 1550 1551 1552 1553 1553 1554 1555 1555 1555 1556 1556 1556 1556 1556 1557 1557 1557 1557 1557 1556 1556 1555 1555 1554 1554 1554 1553 1553 1552 1551 1551 1551 1550 1550 1550 1549 1549 1548
1544 1545 1546 1547 1548 1549 1550 1551 1552 1553 1553 1553 1554 1554 1555 1555 1555 1555 1555 1556 1556 1556 1556 1556 1556 1555 1555 1554 1554 1554 1554 1553 1553 1552 1552 1551 1551 1550 1550 1550 1549 1549 1548
1543 1544 1545 1546 1547 1548 1549 1550 1551 1551 1552 1552 1553 1553 1553 1554 1554 1554 1554 1555 1555 1555 1555 1555 1555 1555 1555 1554 1554 1554 1554 1553 1553 1552 1552 1551 1551 1550 1550 1549 1549 1548 1548
1542 1543 1544 1545 1546 1547 1548 1549 1549 1550 1551 1551 1552 1552 1552 1552 1552 1553 1553 1553 1554 1553 1554 1554 1554 1555 1554 1554 1554 1554 1553 1553 1553 1552 1552 1551 1551 1550 1550 1549 1549 1548 1548
1541 1542 1542 1543 1545 1546 1546 1547 1548 1549 1550 1550 1551 1551 1551 1551 1551 1551 1552 1552 1552 1552 1552 1553 1553 1554 1554 1554 1554 1553 1553 1553 1552 1552 1552 1551 1551 1550 1550 1549 1549 1548 1547
1539 1540 1541 1542 1543 1544 1545 1546 1547 1548 1548 1549 1549 1549 1550 1550 1550 1550 1550 1551 1551 1551 1551 1552 1552 1553 1553 1553 1553 1553 1552 1552 1552 1552 1551 1551 1550 1550 1549 1549 1548 1548 1547
1537 1539 1540 1540 1542 1543 1543 1545 1546 1546 1547 1547 1548 1548 1549 1549 1549 1549 1550 1550 1550 1551 1551 1551 1552 1552 1552 1553 1553 1553 1552 1552 1552 1551 1551 1551 1550 1549 1549 1548 1548 1547 1547
1535 1537 1538 1539 1540 1541 1542 1543 1544 1545 1545 1546 1547 1547 1547 1548 1548 1548 1549 1549 1549 1550 1550 1550 1550 1551 1551 1552 1552 1552 1552 1551 1551 1551 1551 1550 1550 1549 1549 1548 1548 1547 1546
1533 1534 1535 1537 1538 1539 1540 1542 1543 1543 1544 1545 1545 1546 1546 1546 1547 1547 1548 1548 1548 1549 1549 1549 1549 1550 1550 1551 1551 1551 1551 1551 1551 1550 1550 1549 1549 1549 1548 1548 1547 1546 1545
1531 1532 1533 1534 1536 1537 1538 1539 1541 1542 1543 1543 1544 1545 1545 1545 1546 1546 1547 1547 1547 1547 1548 1548 1548 1549 1549 1549 1550 1550 1550 1550 1550 1550 1549 1549 1548 1548 1547 1547 1546 1545 1544
1529 1530 1531 1532 1534 1535 1537 1538 1539 1540 1541 1541 1542 1543 1543 1544 1544 1545 1545 1546 1546 1546 1546 1547 1547 1547 1548 1548 1548 1548 1549 1548 1548 1549 1548 1548 1547 1547 1546 1546 1545 1544 1543
1527 1528 1529 1531 1532 1533 1535 1536 1537 1538 1539 1540 1541 1541 1542 1542 1543 1543 1544 1544 1545 1545 1546 1546 1546 1546 1546 1547 1547 1547 1547 1547 1547 1547 1547 1546 1546 1545 1545 1544 1544 1543 1542
1525 1526 1527 1529 1530 1531 1533 1534 1535 1536 1537 1538 1539 1539 1540 1540 1541 1541 1542 1542 1543 1544 1544 1545 1545 1545 1545 1546 1545 1546 1545 1545 1546 1545 1545 1545 1544 1543 1543 1543 1542 1541 1540
1522 1524 1525 1526 1527 1529 1530 1532 1533 1534 1535 1536 1536 1537 1538 1538 1539 1540 1540 1541 1541 1542 1543 1543 1543 1543 1544 1544 1544 1544 1543 1543 1543 1543 1543 1543 1542 1541 1541 1540 1540 1539 1538
1520 1522 1523 1524 1526 1527 1528 1529 1531 1531 1532 1533 1534 1535 1535 1536 1537 1537 1538 1539 1539 1540 1540 1541 1541 1542 1542 1542 1542 1541 1541 1541 1541 1541 1541 1540 1539 1539 1538 1538 1537 1536 1535